TimeCST,TemperatureF,Dew PointF,Humidity,Sea Level PressureIn,VisibilityMPH,Wind Direction,Wind SpeedMPH,Gust SpeedMPH,PrecipitationIn,Events,Conditions,WindDirDegrees,DateUTC
12:15 AM,64.4,62.6,94,30.18,8.0,SSE,18.4,-,N/A,,Clear,150,2013-01-25 06:15:00
12:35 AM,64.4,62.6,94,30.18,8.0,SSE,18.4,-,N/A,,Clear,150,2013-01-25 06:35:00
12:55 AM,64.4,62.6,94,30.18,8.0,SSE,16.1,-,N/A,,Clear,150,2013-01-25 06:55:00
1:15 AM,64.4,62.6,94,30.18,7.0,SSE,16.1,-,N/A,,Clear,150,2013-01-25 07:15:00
1:35 AM,64.4,62.6,94,30.18,7.0,SSE,16.1,-,N/A,,Clear,150,2013-01-25 07:35:00
1:55 AM,64.4,62.6,94,30.17,7.0,SSE,17.3,-,N/A,,Clear,150,2013-01-25 07:55:00
2:15 AM,64.4,62.6,94,30.16,7.0,SSE,15.0,-,N/A,,Clear,160,2013-01-25 08:15:00
2:35 AM,64.4,62.6,94,30.16,6.0,SSE,16.1,-,N/A,,Clear,160,2013-01-25 08:35:00
2:55 AM,64.4,62.6,94,30.15,6.0,SSE,16.1,-,N/A,,Clear,160,2013-01-25 08:55:00
3:15 AM,64.4,62.6,94,30.14,7.0,SSE,17.3,-,N/A,,Clear,160,2013-01-25 09:15:00
3:35 AM,64.4,62.6,94,30.14,7.0,SSE,16.1,-,N/A,,Clear,160,2013-01-25 09:35:00
3:55 AM,64.4,62.6,94,30.14,7.0,SSE,13.8,-,N/A,,Clear,160,2013-01-25 09:55:00
4:15 AM,64.4,62.6,94,30.13,7.0,SSE,13.8,-,N/A,,Mostly Cloudy,160,2013-01-25 10:15:00
4:55 AM,64.4,62.6,94,30.12,7.0,SSE,17.3,-,N/A,,Partly Cloudy,150,2013-01-25 10:55:00
5:15 AM,64.4,62.6,94,30.12,7.0,SSE,17.3,-,N/A,,Partly Cloudy,150,2013-01-25 11:15:00
5:35 AM,64.4,62.6,94,30.12,8.0,SSE,17.3,-,N/A,,Partly Cloudy,160,2013-01-25 11:35:00
5:55 AM,64.4,62.6,94,30.13,8.0,SSE,18.4,-,N/A,,Clear,160,2013-01-25 11:55:00
6:15 AM,64.4,62.6,94,30.12,-9999.0,SSE,18.4,-,N/A,,Unknown,160,2013-01-25 12:15:00
6:35 AM,64.4,62.6,94,30.13,7.0,SSE,17.3,-,N/A,,Clear,160,2013-01-25 12:35:00
6:55 AM,64.4,62.6,94,30.13,8.0,SSE,17.3,-,N/A,,Clear,160,2013-01-25 12:55:00
7:15 AM,64.4,60.8,88,30.13,6.0,SSE,16.1,-,N/A,,Clear,160,2013-01-25 13:15:00
7:35 AM,64.4,60.8,88,30.14,6.0,SSE,16.1,-,N/A,,Clear,160,2013-01-25 13:35:00
7:55 AM,64.4,60.8,88,30.14,7.0,SSE,13.8,-,N/A,,Clear,160,2013-01-25 13:55:00
8:15 AM,64.4,60.8,88,30.15,7.0,SSE,13.8,-,N/A,,Clear,160,2013-01-25 14:15:00
8:35 AM,64.4,62.6,94,30.15,7.0,SSE,15.0,-,N/A,,Clear,160,2013-01-25 14:35:00
8:55 AM,64.4,62.6,94,30.15,7.0,SSE,16.1,-,N/A,,Clear,160,2013-01-25 14:55:00
9:15 AM,66.2,62.6,88,30.16,7.0,SSE,16.1,-,N/A,,Clear,160,2013-01-25 15:15:00
9:35 AM,66.2,62.6,88,30.17,7.0,SSE,16.1,-,N/A,,Clear,150,2013-01-25 15:35:00
9:55 AM,66.2,62.6,88,30.17,7.0,SSE,17.3,-,N/A,,Clear,150,2013-01-25 15:55:00
10:15 AM,66.2,62.6,88,30.17,7.0,SSE,19.6,-,N/A,,Clear,150,2013-01-25 16:15:00
10:35 AM,66.2,62.6,88,30.17,7.0,SSE,19.6,-,N/A,,Clear,150,2013-01-25 16:35:00
11:15 AM,66.2,62.6,88,30.17,6.0,SSE,16.1,-,N/A,,Clear,150,2013-01-25 17:15:00
11:35 AM,66.2,62.6,88,30.16,7.0,SE,16.1,-,N/A,,Clear,140,2013-01-25 17:35:00
11:55 AM,66.2,62.6,88,30.16,7.0,SE,13.8,-,N/A,,Clear,140,2013-01-25 17:55:00
12:15 PM,66.2,62.6,88,30.16,8.0,SE,13.8,-,N/A,,Clear,140,2013-01-25 18:15:00
12:35 PM,68.0,62.6,83,30.15,7.0,SE,15.0,-,N/A,,Clear,140,2013-01-25 18:35:00
12:55 PM,68.0,62.6,83,30.13,8.0,SSE,15.0,-,N/A,,Clear,150,2013-01-25 18:55:00
1:15 PM,68.0,64.4,88,30.12,7.0,SE,17.3,-,N/A,,Clear,140,2013-01-25 19:15:00
1:35 PM,68.0,64.4,88,30.11,8.0,SE,17.3,-,N/A,,Clear,140,2013-01-25 19:35:00
1:55 PM,68.0,64.4,88,30.10,8.0,SE,18.4,-,N/A,,Clear,140,2013-01-25 19:55:00
2:15 PM,68.0,64.4,88,30.09,8.0,SE,18.4,-,N/A,,Clear,130,2013-01-25 20:15:00
2:35 PM,68.0,64.4,88,30.09,8.0,SE,17.3,-,N/A,,Clear,130,2013-01-25 20:35:00
2:55 PM,68.0,64.4,88,30.08,8.0,SE,18.4,-,N/A,,Clear,130,2013-01-25 20:55:00
3:15 PM,68.0,64.4,88,30.08,7.0,SE,17.3,-,N/A,,Clear,130,2013-01-25 21:15:00
3:35 PM,68.0,64.4,88,30.08,8.0,SE,17.3,-,N/A,,Clear,130,2013-01-25 21:35:00
3:55 PM,68.0,64.4,88,30.07,7.0,SE,17.3,-,N/A,,Clear,130,2013-01-25 21:55:00
4:15 PM,68.0,64.4,88,30.07,7.0,SE,16.1,-,N/A,,Clear,130,2013-01-25 22:15:00
4:35 PM,68.0,64.4,88,30.07,8.0,ESE,15.0,-,N/A,,Clear,120,2013-01-25 22:35:00
4:55 PM,68.0,64.4,88,30.07,8.0,ESE,16.1,-,N/A,,Clear,120,2013-01-25 22:55:00
5:15 PM,68.0,64.4,88,30.08,7.0,SE,16.1,-,N/A,,Clear,130,2013-01-25 23:15:00
5:35 PM,68.0,64.4,88,30.08,7.0,ESE,16.1,-,N/A,,Clear,120,2013-01-25 23:35:00
5:55 PM,68.0,64.4,88,30.09,7.0,ESE,15.0,-,N/A,,Clear,120,2013-01-25 23:55:00
6:15 PM,68.0,64.4,88,30.09,6.0,ESE,16.1,-,N/A,,Clear,120,2013-01-26 00:15:00
6:35 PM,68.0,64.4,88,30.10,8.0,ESE,16.1,-,N/A,,Clear,120,2013-01-26 00:35:00
6:55 PM,68.0,64.4,88,30.10,9.0,ESE,15.0,-,N/A,,Clear,120,2013-01-26 00:55:00
7:15 PM,68.0,66.2,94,30.10,8.0,ESE,16.1,-,N/A,,Scattered Clouds,120,2013-01-26 01:15:00
7:35 PM,69.8,66.2,88,30.10,9.0,ESE,18.4,-,N/A,,Mostly Cloudy,120,2013-01-26 01:35:00
7:55 PM,68.0,64.4,88,30.10,9.0,SE,18.4,-,N/A,,Mostly Cloudy,130,2013-01-26 01:55:00
8:15 PM,68.0,64.4,88,30.10,9.0,SE,19.6,-,N/A,,Scattered Clouds,130,2013-01-26 02:15:00
8:35 PM,68.0,64.4,88,30.09,9.0,SE,21.9,-,N/A,,Partly Cloudy,130,2013-01-26 02:35:00
8:55 PM,68.0,64.4,88,30.10,9.0,SE,20.7,-,N/A,,Clear,130,2013-01-26 02:55:00
9:15 PM,68.0,64.4,88,30.10,8.0,SE,18.4,-,N/A,,Clear,130,2013-01-26 03:15:00
9:35 PM,68.0,64.4,88,30.11,8.0,SE,17.3,-,N/A,,Clear,130,2013-01-26 03:35:00
9:55 PM,68.0,64.4,88,30.11,9.0,SE,18.4,-,N/A,,Clear,130,2013-01-26 03:55:00
10:15 PM,68.0,64.4,88,30.12,9.0,SE,15.0,-,N/A,,Clear,130,2013-01-26 04:15:00
10:35 PM,68.0,64.4,88,30.12,9.0,SE,16.1,-,N/A,,Clear,130,2013-01-26 04:35:00
10:55 PM,68.0,64.4,88,30.12,9.0,SE,16.1,-,N/A,,Clear,130,2013-01-26 04:55:00
11:15 PM,68.0,64.4,88,30.12,8.0,SE,18.4,-,N/A,,Clear,140,2013-01-26 05:15:00
11:35 PM,68.0,64.4,88,30.11,9.0,SE,18.4,-,N/A,,Partly Cloudy,140,2013-01-26 05:35:00
11:55 PM,68.0,64.4,88,30.11,9.0,SE,19.6,-,N/A,,Partly Cloudy,140,2013-01-26 05:55:00